Location: ????????
(56.1167°N, 38.6333°E)
Time: 21:13:07
(UTC+00:00)

Cosmos 2082 Rocket - Pass Details

Date: 18 November 2025
Orbit: 834 x 851 km, 71.0° (Epoch: 06 December)

Event Time Altitude Azimuth Distance (km) Brightness Sun altitude
Rises 15:48:02 0° 323° (NW) 3,395 5.8 -21.1°
Reaches altitude 10° 15:50:36 10° 316° (NW) 2,456 5.1 -21.5°
Maximum altitude 15:55:48 40° 249° (WSW) 1,211 3.5 -22.2°
Drops below altitude 10° 16:00:59 10° 181° (S) 2,443 4.6 -23.0°
Sets 16:03:32 0° 174° (S) 3,374 5.3 -23.3°
